Miscellaneous Local Product
Issued by NWS Hastings, NE

Home | Current Version | Previous Version | Text Only | Print | Product List | Glossary Off
Versions: 1 2 3 4 5 6 7 8 9 10 11 12 13 14 15 16 17 18 19 20 21 22 23 24 25 26 27 28 29 30 31 32 33 34 35 36 37 38 39 40 41 42 43 44 45 46 47 48 49 50

000
AXUS43 KGID 241202
MISGRI

GID CWA HOURLY WEATHER ROUNDUP
NATIONAL WEATHER SERVICE HASTINGS NE
600 AM CST TUE JAN 24 2017

NOTE: "FAIR" INDICATES FEW OR NO CLOUDS BELOW 12,000 FEET WITH NO
SIGNIFICANT WEATHER AND/OR OBSTRUCTIONS TO VISIBILITY.

...SOUTH CENTRAL NEBRASKA...

CITY           SKY/WX    TMP DP  RH WIND       PRES   REMARKS
GRAND ISLAND   CLOUDY    31  31 100 E17       29.60F FOG     WCI  19
HASTINGS       MOCLDY    32  30  92 E14       29.57F FOG     WCI  22
KEARNEY        CLOUDY    32  28  86 E16       29.56S WCI  21
ORD            MIX PCPN  31  29  92 E10       29.62F FOG     WCI  22
YORK           PTCLDY    32  32 100 E21       29.63F FOG     WCI  20
AURORA         CLOUDY    31  31 100 E18       29.61F FOG     WCI  19
LEXINGTON      CLOUDY    32  31  96 E12       29.54R FOG     WCI  23
HOLDREGE       CLOUDY    32  31  95 E16       29.53F FOG     WCI  21
HEBRON         CLOUDY    32  31  96 E13G20    29.60F FOG     WCI  22

...NEBRASKA PANHANDLE...

CITY           SKY/WX    TMP DP  RH WIND       PRES   REMARKS
CHADRON        LGT SNOW  23  21  92 N8        29.68R FOG     WCI  14
ALLIANCE       FOG       23  21  92 N16       29.57F VSB 1/2 WCI  10
SCOTTSBLUFF    LGT SNOW  23  20  88 N9        29.60S VSB 3/4 WCI  13
SIDNEY         MIX PCPN  27  24  89 NE16      29.52R WCI  15

...WESTERN AND NORTH CENTRAL NEBRASKA...

CITY           SKY/WX    TMP DP  RH WIND       PRES   REMARKS
VALENTINE      LGT SNOW  30  28  92 NE8       29.65F VSB 3/4 WCI  22
AINSWORTH      SNOW      30  30 100 E9        29.64F VSB 1/4 WCI  22
ONEILL         FOG       31  31 100 E7        29.70S VSB 1   WCI  25
BROKEN BOW     CLOUDY    31  31 100 E10       29.56F FOG     WCI  22
IMPERIAL       CLOUDY    31  29  92 NE13      29.50F FOG     WCI  21
NORTH PLATTE   CLOUDY    31  30  96 E10       29.55S FOG     WCI  22
MCCOOK         CLOUDY    32  32 100 NE13      29.47F FOG     WCI  22

...EASTERN NEBRASKA...

CITY           SKY/WX    TMP DP  RH WIND       PRES   REMARKS
NORFOLK        CLOUDY    30  28  92 E10       29.71R FOG     WCI  21
SO SIOUX CITY  CLOUDY    32  29  88 E9        29.78F WCI  24
TEKAMAH        CLOUDY    31  28  89 E10       29.77F WCI  22
COLUMBUS       CLOUDY    30  27  86 E16       29.70F WCI  19
ALBION         CLOUDY    32  30  92 E10       29.67F FOG     WCI  24
OMAHA EPPLEY   CLOUDY    30  26  85 E12       29.77F WCI  20
OFFUTT AFB     CLOUDY    30  30 100 E13       29.75F WCI  20
MILLARD        CLOUDY    32  31  95 E6        29.76F FOG     WCI  26
LINCOLN        CLOUDY    31  30  96 E9        29.72F FOG     WCI  23
NEBRASKA CITY  CLOUDY    30  30 100 E12       29.73F FOG     WCI  21
BEATRICE       CLOUDY    32  31  96 E14       29.66F FOG     WCI  22
FALLS CITY     CLOUDY    31  29  92 E16       29.72F WCI  20

...NORTHERN KANSAS...

CITY           SKY/WX    TMP DP  RH WIND       PRES   REMARKS
GOODLAND       CLOUDY    29  28  96 NW13      29.43R FOG     WCI  19
HILL CITY      CLOUDY    32  32 100 E13       29.45F FOG     WCI  22
NORTON         CLOUDY    34  28  80 E10       29.46F WCI  26
PHILLIPSBURG   CLEAR     34  34 100 E12       29.49F WCI  25
SMITH CENTER   CLEAR     30  30 100 E17G23    29.51F WCI  18
HAYS           CLEAR     30  29  96 E10       29.45F WCI  21
RUSSELL        CLEAR     30  28  92 E10       29.45F WCI  21
CONCORDIA      CLOUDY    36  32  85 E15       29.56F WCI  27
SALINA           N/A    N/A N/A N/A MISG        N/A
TOPEKA         PTCLDY    34  30  85 E15       29.67F WCI  24



USA.gov is the U.S. government's official web portal to all federal, state and local government web resources and services.